Flint, MI

9:22 PM EDT on October 16, 2018 (GMT -0400)
Bishop International

Weather History for KFNT - January, 2018

Change the Weather History Date:

Saturday, January 13, 2018

  Actual Average Record
Temperature  
Mean Temperature 6 °F 22 °F  
Max Temperature 14 °F 29 °F 60 °F (1950)
Min Temperature -2 °F 15 °F -9 °F (2015)
Degree Days  
Heating Degree Days 59 43  
Month to date heating degree days 622 548  
Since 1 July heating degree days 3228 3193  
Cooling Degree Days 0 0  
Month to date cooling degree days 0 0  
Year to date cooling degree days 0 0  
Moisture  
Dew Point 1 °F    
Average Humidity 79    
Maximum Humidity 96    
Minimum Humidity 61    
Precipitation  
Precipitation T in 0.06 in 0.83 in (2006)
Month to date precipitation 0.66 0.75  
Year to date precipitation 0.66 0.75  
Snow  
Snow T in 0.40 in 10.40 in (1979)
Month to date snowfall 7.0 5.5  
Since 1 July snowfall 30.7 20.2  
Snow Depth 4.00 in    
Sea Level Pressure  
Sea Level Pressure 30.48 in    
Wind  
Wind Speed 6 mph (North)    
Max Wind Speed 26 mph    
Max Gust Speed 35 mph    
Visibility 9 miles    
Events Snow    
T = Trace of Precipitation, MM = Missing Value Source: NWS Daily Summary

Daily Weather History Graph

Daily Weather History Graph

Search for Another Location

Airport or City:

Astronomy

Jan. 13, 2018 Rise Set
Actual Time 8:04 AM EST 5:23 PM EST
Civil Twilight 7:32 AM EST 5:55 PM EST
Nautical Twilight 6:57 AM EST 6:30 PM EST
Astronomical Twilight 6:23 AM EST 7:04 PM EST
Moon 5:04 AM EST (1/13) 2:59 PM EST (1/13)
Length of Visible Light 10h 22m
Length of Day
9h 19m
Waning Crescent, 10% of the Moon is Illuminated
Jan 13
Waning Crescent
Jan 16
New
Jan 24
First Quarter
Jan 31
Full
Feb 7
Last Quarter

Hourly Weather History & Observations

Time (EST) Temp. Windchill Dew Point Humidity Pressure Visibility Wind Dir Wind Speed Gust Speed Precip Events Conditions
12:53 AM 10.0 °F -10.0 °F 1.0 °F 67% 30.27 in 9.0 mi North 23.0 mph 34.5 mph N/A   Clear
1:53 AM 10.9 °F -5.9 °F 1.0 °F 64% 30.32 in 10.0 mi North 16.1 mph 25.3 mph N/A   Overcast
2:53 AM 10.9 °F -6.5 °F -0.0 °F 61% 30.32 in 10.0 mi NNW 17.3 mph - N/A   Overcast
3:53 AM 10.0 °F -5.9 °F -0.0 °F 64% 30.33 in 10.0 mi NNW 13.8 mph - N/A   Clear
4:53 AM 9.0 °F -5.1 °F -0.0 °F 67% 30.36 in 10.0 mi NNW 10.4 mph - N/A   Clear
5:53 AM 9.0 °F -4.2 °F -0.0 °F 67% 30.38 in 10.0 mi North 9.2 mph - N/A   Clear
6:53 AM 7.0 °F -4.5 °F -0.0 °F 73% 30.40 in 10.0 mi NW 6.9 mph - N/A   Clear
7:53 AM 5.0 °F -2.1 °F -0.0 °F 80% 30.43 in 10.0 mi WNW 3.5 mph - N/A   Overcast
8:53 AM 10.0 °F 0.4 °F 1.9 °F 70% 30.45 in 10.0 mi NNW 5.8 mph - N/A   Overcast
9:53 AM 10.9 °F 0.2 °F 3.9 °F 73% 30.48 in 10.0 mi NNW 6.9 mph - N/A   Overcast
10:46 AM 12.0 °F 2.7 °F 3.9 °F 70% 30.45 in 4.0 mi NE 5.8 mph - 0.00 in Snow Light Snow
10:53 AM 12.0 °F 1.5 °F 3.9 °F 70% 30.50 in 4.0 mi NNE 6.9 mph - 0.00 in   Haze
11:53 AM 12.9 °F 3.8 °F 3.9 °F 67% 30.51 in 10.0 mi NNE 5.8 mph - 0.00 in   Overcast
12:42 PM 12.9 °F 1.6 °F 3.0 °F 65% 30.45 in 10.0 mi North 8.1 mph - N/A   Overcast
12:49 PM 12.2 °F 0.7 °F 3.2 °F 67% 30.45 in 10.0 mi NNE 8.1 mph - N/A   Overcast
12:53 PM 12.9 °F 2.6 °F 3.9 °F 67% 30.51 in 10.0 mi NE 6.9 mph - N/A   Overcast
1:26 PM 12.9 °F -1.6 °F 3.9 °F 67% 30.45 in 2.5 mi North 12.7 mph - 0.00 in Snow Light Snow
1:37 PM 12.9 °F -1.6 °F 3.9 °F 67% 30.45 in 3.0 mi North 12.7 mph - 0.00 in Snow Light Snow
1:53 PM 12.9 °F -1.6 °F 3.9 °F 67% 30.51 in 4.0 mi North 12.7 mph - 0.00 in Snow Light Snow
2:53 PM 14.0 °F 6.5 °F 1.9 °F 59% 30.52 in 10.0 mi NE 4.6 mph - 0.00 in   Overcast
3:53 PM 12.9 °F - 1.9 °F 62% 30.55 in 10.0 mi Calm Calm - N/A   Overcast
4:53 PM 12.0 °F - 1.9 °F 64% 30.57 in 10.0 mi Calm Calm - N/A   Overcast
5:53 PM 10.9 °F 4.7 °F 3.0 °F 70% 30.58 in 10.0 mi SW 3.5 mph - N/A   Clear
6:53 PM 5.0 °F - 3.0 °F 92% 30.60 in 10.0 mi Calm Calm - N/A   Scattered Clouds
7:53 PM 3.0 °F - 1.0 °F 91% 30.61 in 10.0 mi Calm Calm - N/A   Clear
8:53 PM 1.9 °F - -2.0 °F 83% 30.62 in 10.0 mi Calm Calm - N/A   Clear
9:53 PM 1.0 °F - -2.0 °F 87% 30.63 in 10.0 mi Calm Calm - N/A   Clear
10:53 PM -2.0 °F - -7.1 °F 79% 30.64 in 10.0 mi Calm Calm - N/A   Clear
11:53 PM -0.9 °F - -5.1 °F 83% 30.65 in 10.0 mi Calm Calm - N/A   Clear